When you browse on this site, cookies collect data to enhance your experience and personalize the content and advertising you see.
Visit our Privacy Policy to learn more. By continuing to use the site, you agree to this use of cookies and data.
  • In United Kingdom
  • List of Countries
  • For 7 days
  • Water Temperature
  • Satellite Maps
  • Weather Map
  • Weather Widgets
  • user-avatar
    Login

    Hourly Weather Stirling

    Today, 25 June, Tuesday

    Time Temperature Precipitation Wind Pressure Humidity
    00:00 +14°C° 0 mm 1 mps 765 mmHg 96%
    01:00 +14°C° 0 mm 1 mps 765 mmHg 96%
    02:00 +14°C° 0 mm 1 mps 764 mmHg 96%
    03:00 +14°C° 0 mm 1 mps 764 mmHg 96%
    04:00 +14°C° 0 mm 1 mps 765 mmHg 95%
    05:00 +15°C° 0 mm 1 mps 765 mmHg 95%
    06:00 +15°C° 0 mm 1 mps 765 mmHg 95%
    07:00 +16°C° 0 mm 2 mps 766 mmHg 91%
    08:00 +17°C° 0 mm 2 mps 766 mmHg 87%
    09:00 +18°C° 0 mm 2 mps 766 mmHg 83%
    10:00 +18°C° 0.1 mm 2 mps 767 mmHg 83%
    11:00 +17°C° 0.1 mm 2 mps 767 mmHg 83%
    12:00 +17°C° 0.1 mm 2 mps 767 mmHg 84%
    13:00 +18°C° 0.1 mm 2 mps 767 mmHg 83%
    14:00 +18°C° 0.1 mm 2 mps 767 mmHg 82%
    15:00 +18°C° 0.1 mm 2 mps 768 mmHg 81%
    16:00 +18°C° 0.1 mm 2 mps 768 mmHg 83%
    17:00 +17°C° 0.1 mm 2 mps 768 mmHg 85%
    18:00 +17°C° 0.1 mm 2 mps 768 mmHg 86%
    19:00 +16°C° 0 mm 2 mps 769 mmHg 89%
    20:00 +15°C° 0 mm 2 mps 769 mmHg 92%
    21:00 +14°C° 0 mm 1 mps 770 mmHg 94%
    22:00 +13°C° 0 mm 1 mps 770 mmHg 94%
    23:00 +13°C° 0 mm 1 mps 770 mmHg 94%

    Tomorrow, 26 June, Wednesday

    Time Temperature Precipitation Wind Pressure Humidity
    00:00 +13°C° 0 mm 1 mps 771 mmHg 93%
    01:00 +12°C° 0 mm 1 mps 771 mmHg 93%
    02:00 +11°C° 0 mm 0 mps 771 mmHg 93%
    03:00 +11°C° 0 mm 0 mps 771 mmHg 93%
    04:00 +11°C° 0 mm 0 mps 771 mmHg 92%
    05:00 +12°C° 0 mm 0 mps 772 mmHg 90%
    06:00 +12°C° 0 mm 0 mps 772 mmHg 88%
    07:00 +13°C° 0 mm 0 mps 772 mmHg 83%
    08:00 +15°C° 0 mm 0 mps 772 mmHg 79%
    09:00 +18°C° 0 mm 1 mps 773 mmHg 74%
    10:00 +19°C° 0 mm 1 mps 773 mmHg 70%
    11:00 +20°C° 0 mm 1 mps 773 mmHg 66%
    12:00 +22°C° 0 mm 1 mps 773 mmHg 61%
    13:00 +22°C° 0 mm 1 mps 773 mmHg 60%
    14:00 +23°C° 0 mm 1 mps 773 mmHg 59%
    15:00 +23°C° 0 mm 1 mps 773 mmHg 57%
    16:00 +23°C° 0 mm 1 mps 772 mmHg 60%
    17:00 +23°C° 0 mm 1 mps 772 mmHg 62%
    18:00 +23°C° 0 mm 1 mps 772 mmHg 65%
    19:00 +21°C° 0 mm 1 mps 772 mmHg 71%
    20:00 +19°C° 0 mm 1 mps 773 mmHg 78%
    21:00 +16°C° 0 mm 1 mps 773 mmHg 84%
    22:00 +15°C° 0 mm 1 mps 773 mmHg 85%
    23:00 +14°C° 0 mm 1 mps 773 mmHg 86%

    Day after tomorrow, 27 June, Thursday

    Time Temperature Precipitation Wind Pressure Humidity
    00:00 +14°C° 0 mm 1 mps 773 mmHg 88%
    01:00 +12°C° 0 mm 0 mps 773 mmHg 88%
    02:00 +12°C° 0 mm 0 mps 773 mmHg 89%
    03:00 +11°C° 0 mm 0 mps 773 mmHg 90%
    04:00 +12°C° 0 mm 0 mps 773 mmHg 88%
    05:00 +13°C° 0 mm 0 mps 773 mmHg 86%
    06:00 +14°C° 0 mm 0 mps 773 mmHg 85%
    07:00 +16°C° 0 mm 0 mps 773 mmHg 80%
    08:00 +18°C° 0 mm 0 mps 773 mmHg 76%
    09:00 +21°C° 0 mm 1 mps 773 mmHg 71%
    10:00 +22°C° 0 mm 1 mps 773 mmHg 68%
    11:00 +23°C° 0 mm 1 mps 773 mmHg 66%
    12:00 +24°C° 0 mm 1 mps 773 mmHg 63%
    13:00 +24°C° 0 mm 2 mps 772 mmHg 63%
    14:00 +25°C° 0 mm 2 mps 772 mmHg 63%
    15:00 +25°C° 0 mm 2 mps 772 mmHg 63%
    16:00 +24°C° 0 mm 2 mps 772 mmHg 67%
    17:00 +23°C° 0 mm 2 mps 771 mmHg 71%
    18:00 +22°C° 0 mm 3 mps 771 mmHg 75%
    19:00 +19°C° 0 mm 2 mps 771 mmHg 81%
    20:00 +17°C° 0 mm 2 mps 771 mmHg 87%
    21:00 +15°C° 0 mm 2 mps 771 mmHg 93%
    22:00 +14°C° 0 mm 2 mps 771 mmHg 93%
    23:00 +13°C° 0 mm 2 mps 771 mmHg 94%

    28 June, Friday

    Time Temperature Precipitation Wind Pressure Humidity
    00:00 +12°C° 0 mm 1 mps 771 mmHg 95%
    01:00 +12°C° 0 mm 1 mps 771 mmHg 95%
    02:00 +12°C° 0 mm 1 mps 771 mmHg 95%
    03:00 +12°C° 0 mm 1 mps 770 mmHg 95%
    04:00 +12°C° 0 mm 1 mps 770 mmHg 93%
    05:00 +13°C° 0 mm 1 mps 770 mmHg 91%
    06:00 +14°C° 0 mm 2 mps 769 mmHg 90%
    07:00 +16°C° 0 mm 2 mps 769 mmHg 84%
    08:00 +18°C° 0 mm 2 mps 769 mmHg 79%
    09:00 +19°C° 0 mm 2 mps 768 mmHg 73%
    10:00 +20°C° 0 mm 3 mps 768 mmHg 70%
    11:00 +21°C° 0 mm 3 mps 768 mmHg 67%
    12:00 +22°C° 0 mm 3 mps 767 mmHg 64%
    13:00 +22°C° 0 mm 3 mps 767 mmHg 65%
    14:00 +22°C° 0 mm 3 mps 766 mmHg 67%
    15:00 +23°C° 0 mm 4 mps 766 mmHg 68%
    16:00 +22°C° 0 mm 3 mps 765 mmHg 72%
    17:00 +21°C° 0 mm 3 mps 765 mmHg 76%
    18:00 +20°C° 0 mm 3 mps 765 mmHg 80%
    19:00 +18°C° 0.1 mm 3 mps 764 mmHg 85%
    20:00 +17°C° 0.1 mm 2 mps 764 mmHg 90%
    21:00 +15°C° 0.1 mm 2 mps 764 mmHg 95%
    22:00 +14°C° 0 mm 2 mps 764 mmHg 96%
    23:00 +14°C° 0 mm 1 mps 763 mmHg 96%

    29 June, Saturday

    Time Temperature Precipitation Wind Pressure Humidity
    00:00 +13°C° 0 mm 1 mps 763 mmHg 97%
    01:00 +13°C° 0 mm 1 mps 762 mmHg 97%
    02:00 +13°C° 0 mm 1 mps 761 mmHg 97%
    03:00 +13°C° 0 mm 1 mps 761 mmHg 97%
    04:00 +14°C° 0 mm 1 mps 760 mmHg 97%
    05:00 +14°C° 0 mm 1 mps 760 mmHg 96%
    06:00 +15°C° 0 mm 1 mps 760 mmHg 95%
    07:00 +16°C° 0.1 mm 1 mps 759 mmHg 93%
    08:00 +18°C° 0.1 mm 1 mps 759 mmHg 91%
    09:00 +19°C° 0.1 mm 1 mps 758 mmHg 89%
    10:00 +20°C° 0 mm 1 mps 758 mmHg 87%
    11:00 +21°C° 0 mm 1 mps 758 mmHg 85%
    12:00 +22°C° 0 mm 1 mps 757 mmHg 83%
    13:00 +21°C° 0.1 mm 2 mps 757 mmHg 80%
    14:00 +22°C° 0.1 mm 3 mps 757 mmHg 76%
    15:00 +23°C° 0.1 mm 4 mps 756 mmHg 72%
    16:00 +22°C° 0 mm 4 mps 756 mmHg 72%
    17:00 +22°C° 0 mm 4 mps 756 mmHg 71%
    18:00 +21°C° 0 mm 5 mps 755 mmHg 71%
    19:00 +20°C° 0 mm 4 mps 755 mmHg 77%
    20:00 +18°C° 0 mm 3 mps 756 mmHg 83%
    21:00 +17°C° 0 mm 3 mps 756 mmHg 88%
    22:00 +16°C° 0 mm 3 mps 756 mmHg 91%
    23:00 +15°C° 0 mm 2 mps 756 mmHg 93%

    30 June, Sunday

    Time Temperature Precipitation Wind Pressure Humidity
    00:00 +14°C° 0 mm 2 mps 756 mmHg 95%
    01:00 +14°C° 0 mm 2 mps 756 mmHg 95%
    02:00 +13°C° 0 mm 3 mps 755 mmHg 95%
    03:00 +13°C° 0 mm 3 mps 755 mmHg 95%
    04:00 +13°C° 0 mm 3 mps 755 mmHg 94%
    05:00 +13°C° 0 mm 3 mps 756 mmHg 93%
    06:00 +14°C° 0 mm 3 mps 756 mmHg 92%
    07:00 +14°C° 0.1 mm 4 mps 756 mmHg 90%
    08:00 +14°C° 0.1 mm 4 mps 756 mmHg 88%
    09:00 +15°C° 0.1 mm 5 mps 757 mmHg 87%
    10:00 +15°C° 0.1 mm 5 mps 757 mmHg 83%
    11:00 +15°C° 0.1 mm 6 mps 757 mmHg 80%
    12:00 +15°C° 0.1 mm 6 mps 758 mmHg 77%
    13:00 +15°C° 0 mm 6 mps 758 mmHg 78%
    14:00 +14°C° 0 mm 6 mps 758 mmHg 79%
    15:00 +14°C° 0 mm 5 mps 758 mmHg 80%
    16:00 +14°C° 0.1 mm 5 mps 759 mmHg 80%
    17:00 +14°C° 0.1 mm 5 mps 759 mmHg 80%
    18:00 +14°C° 0.1 mm 5 mps 759 mmHg 79%
    19:00 +13°C° 0 mm 5 mps 759 mmHg 80%
    20:00 +12°C° 0 mm 4 mps 760 mmHg 80%
    21:00 +12°C° 0 mm 4 mps 760 mmHg 80%
    22:00 +11°C° 0 mm 4 mps 760 mmHg 84%
    23:00 +11°C° 0 mm 3 mps 760 mmHg 87%
    Show more